星链-32167 (STARLINK-32167)

导读

STARLINK-32167是美国SpaceX公司星链(Starlink)星座中的低轨通信卫星,于2024年7月27日发射升空,属于星链第二代mini卫星。它运行在约550公里近地轨道,配备激光星间链路与先进相控阵天线,可提供百G级带宽服务,旨在为全球尤其是偏远地区提供低延迟高速互联网接入,进一步扩充了星链星座的全球覆盖能力与通信容量。

基本信息
目录编号:
60268
目录名称:
STARLINK-32167
国际标识:
2024-131P
轨道中心:
EARTH
卫星名称:
星链-32167 (STARLINK-32167)
卫星全名:
星链-32167 (STARLINK-32167)
卫星状态:
在轨 (已飞行776 天)
发射日期:
2024-07-27 UTC
国别 :
美国 (US)
星等 :
--
该卫星已列入 空间交会检测服务 Space Conjunction Data Service (SCDS) ,当前飞行风险评估等级: 无高风险
轨道信息
数据来源 国际轨道数据 AOE轨道数据
星历时间 2026-09-11T14:18:12+0800
13小时前
查看轨道信息
2026-09-10T12:00:00+0800
1天前
查看轨道信息
半长轴 6840.792km 6840.804km
偏心率 0.0001167 0.0000926
轨道倾角 53.159° 53.158°
近地点辐角 88.663° 137.989°
升交点赤经 268.849° 273.973°
平近点角 271.451° 284.649°
近地点 461.856km 462.033km
远地点 463.454km 463.301km
周期 93.847分钟 93.847分钟
每日圈数 15.344165 15.344123
详细信息
卫星平台:
Starlink v2.0 mini
运营商:
太空探索技术公司
运营商所在国:
美国
制造商(研发单位):
太空探索技术公司
制造商所在国:
美国
使用方式:
暂无
卫星简介
星链(Starlink)计划是由太空探索技术公司(SpaceX)提出的一个巨型低轨卫星互联网星座项目,计划在2019年至2024年间在太空搭建由约1.2万颗卫星组成的“星链”网络,其中1584颗将部署在地球上空550千米处的近地轨道,并从2020年开始工作。该卫星仍在工作。
2D轨道图
3D轨道图
轨道高度分析图
轨道倾角分析图
轨道综合分析图
查看轨道综合分析图
交会数据列表
事件ID 空间交会对象 最接近时刻(TCA) 交会距离 交会风险概率(CRP) 交会风险指数(CRI) 操作
CDM_260909-100206-026806-833521
2026-09-09T
10:02:27+0000
2.093 km
极远距离
1.630271E-6 低风险 0.39
CDM_260914-063006-026806-833521
2026-09-14T
06:30:01+0000
2.256 km
极远距离
1.388935E-6 低风险 0.38
CDM_260912-225804-945106-026821
2026-09-12T
22:58:10+0000
2.792 km
极远距离
1.315523E-6 低风险 0.37
CDM_260912-014605-236406-026821
2026-09-12T
01:46:17+0000
2.825 km
极远距离
1.284144E-6 低风险 0.37
CDM_260911-192505-316106-026821
2026-09-11T
19:25:40+0000
2.825 km
极远距离
1.227347E-6 低风险 0.37
CDM_260910-033505-314006-026821
2026-09-10T
03:35:39+0000
2.991 km
极远距离
1.164648E-6 低风险 0.36
与全量物体交会距离演化趋势
与全量物体交会风险概率演化趋势